Time,TemperatureF,DewpointF,PressureIn,WindDirection,WindDirectionDegrees,WindSpeedMPH,WindSpeedGustMPH,Humidity,HourlyPrecipIn,Conditions,Clouds,dailyrainin,SoftwareType,DateUTC
2013-04-21 00:01:00,46.0,36.8,29.94,East,91,7.6,7.6,70,0.12,,---,0.00,VWS V14.01,2013-04-21 07:01:00,
2013-04-21 00:06:00,46.0,37.2,29.94,East,91,7.6,7.6,71,0.12,,---,0.00,VWS V14.01,2013-04-21 07:06:00,
2013-04-21 00:12:00,45.9,37.0,29.94,East,91,7.6,7.6,71,0.12,,---,0.00,VWS V14.01,2013-04-21 07:12:00,
2013-04-21 00:17:00,45.9,37.0,29.94,East,91,7.6,7.6,71,0.12,,---,0.00,VWS V14.01,2013-04-21 07:17:00,
2013-04-21 00:23:00,45.7,36.8,29.94,East,91,7.6,7.6,71,0.08,,---,0.00,VWS V14.01,2013-04-21 07:23:00,
2013-04-21 00:28:00,45.7,36.8,29.94,East,91,7.6,7.6,71,0.08,,---,0.00,VWS V14.01,2013-04-21 07:28:00,
2013-04-21 00:34:00,45.5,36.7,29.94,East,91,7.6,7.6,71,0.08,,---,0.00,VWS V14.01,2013-04-21 07:34:00,
2013-04-21 00:39:00,45.5,36.7,29.94,East,91,7.6,7.6,71,0.08,,---,0.00,VWS V14.01,2013-04-21 07:39:00,
2013-04-21 00:44:00,45.5,36.7,29.94,East,91,7.6,7.6,71,0.08,,---,0.00,VWS V14.01,2013-04-21 07:44:00,
2013-04-21 00:49:00,45.3,36.5,29.94,East,91,7.6,7.6,71,0.08,,---,0.00,VWS V14.01,2013-04-21 07:49:00,
2013-04-21 00:54:00,45.3,36.8,29.94,East,91,7.6,7.6,72,0.08,,---,0.00,VWS V14.01,2013-04-21 07:54:00,
2013-04-21 01:00:00,45.1,36.7,29.94,East,91,7.6,7.6,72,0.00,,---,0.00,VWS V14.01,2013-04-21 08:00:00,
2013-04-21 01:05:00,45.1,36.7,29.94,East,91,7.6,7.6,72,0.00,,---,0.00,VWS V14.01,2013-04-21 08:05:00,
2013-04-21 01:11:00,45.1,37.0,29.94,East,91,7.6,7.6,73,0.00,,---,0.00,VWS V14.01,2013-04-21 08:11:00,
2013-04-21 01:17:00,45.0,36.8,29.94,East,91,7.6,7.6,73,0.00,,---,0.00,VWS V14.01,2013-04-21 08:17:00,
2013-04-21 01:22:00,44.8,36.7,29.94,East,91,7.6,7.6,73,0.00,,---,0.00,VWS V14.01,2013-04-21 08:22:00,
2013-04-21 01:27:00,44.6,36.5,29.94,East,91,7.6,7.6,73,0.00,,---,0.00,VWS V14.01,2013-04-21 08:27:00,
2013-04-21 01:32:00,44.6,36.5,29.94,East,91,7.6,7.6,73,0.04,,---,0.04,VWS V14.01,2013-04-21 08:32:00,
2013-04-21 01:37:00,44.6,36.8,29.94,East,91,7.6,7.6,74,0.04,,---,0.04,VWS V14.01,2013-04-21 08:37:00,
2013-04-21 01:43:00,44.6,37.2,29.94,East,91,7.6,7.6,75,0.04,,---,0.04,VWS V14.01,2013-04-21 08:43:00,
2013-04-21 01:48:00,44.6,37.2,29.94,East,91,7.6,7.6,75,0.04,,---,0.04,VWS V14.01,2013-04-21 08:48:00,
2013-04-21 01:53:00,44.6,37.5,29.94,East,91,7.6,7.6,76,0.04,,---,0.04,VWS V14.01,2013-04-21 08:53:00,
2013-04-21 01:58:00,44.6,37.8,29.94,East,91,7.6,7.6,77,0.04,,---,0.04,VWS V14.01,2013-04-21 08:58:00,
2013-04-21 02:03:00,44.4,37.7,29.91,East,91,7.6,7.6,77,0.04,,---,0.04,VWS V14.01,2013-04-21 09:03:00,
2013-04-21 02:08:00,44.4,38.0,29.91,East,91,7.6,7.6,78,0.04,,---,0.04,VWS V14.01,2013-04-21 09:08:00,
2013-04-21 02:14:00,44.4,37.7,29.91,East,91,7.6,7.6,77,0.04,,---,0.04,VWS V14.01,2013-04-21 09:14:00,
2013-04-21 02:19:00,44.4,37.7,29.91,East,91,7.6,7.6,77,0.04,,---,0.04,VWS V14.01,2013-04-21 09:19:00,
2013-04-21 02:24:00,44.2,37.5,29.91,East,91,7.6,7.6,77,0.04,,---,0.04,VWS V14.01,2013-04-21 09:24:00,
2013-04-21 02:30:00,44.2,37.5,29.91,East,91,7.6,7.6,77,0.00,,---,0.04,VWS V14.01,2013-04-21 09:30:00,
2013-04-21 02:36:00,44.2,37.5,29.91,East,91,7.6,7.6,77,0.00,,---,0.04,VWS V14.01,2013-04-21 09:36:00,
2013-04-21 02:41:00,44.2,37.5,29.91,East,91,7.6,7.6,77,0.00,,---,0.04,VWS V14.01,2013-04-21 09:41:00,
2013-04-21 02:46:00,44.2,37.5,29.91,East,91,7.6,7.6,77,0.00,,---,0.04,VWS V14.01,2013-04-21 09:46:00,
2013-04-21 02:52:00,44.2,37.2,29.91,East,91,7.6,7.6,76,0.00,,---,0.04,VWS V14.01,2013-04-21 09:52:00,
2013-04-21 02:58:00,44.4,37.3,29.91,East,91,7.6,7.6,76,0.00,,---,0.04,VWS V14.01,2013-04-21 09:58:00,
2013-04-21 03:03:00,44.4,37.0,29.91,East,91,7.6,7.6,75,0.00,,---,0.04,VWS V14.01,2013-04-21 10:03:00,
2013-04-21 03:09:00,44.4,37.0,29.91,East,91,7.6,7.6,75,0.00,,---,0.04,VWS V14.01,2013-04-21 10:09:00,
2013-04-21 03:14:00,44.4,36.7,29.91,East,91,7.6,7.6,74,0.00,,---,0.04,VWS V14.01,2013-04-21 10:14:00,
2013-04-21 03:20:00,44.2,36.2,29.91,East,91,7.6,7.6,73,0.00,,---,0.04,VWS V14.01,2013-04-21 10:20:00,
2013-04-21 03:26:00,44.4,36.0,29.91,East,91,7.6,7.6,72,0.00,,---,0.04,VWS V14.01,2013-04-21 10:26:00,
2013-04-21 03:31:00,44.4,36.0,29.91,East,91,7.6,7.6,72,0.00,,---,0.04,VWS V14.01,2013-04-21 10:31:00,
2013-04-21 03:36:00,44.4,35.6,29.91,East,91,7.6,7.6,71,0.00,,---,0.04,VWS V14.01,2013-04-21 10:36:00,
2013-04-21 03:42:00,44.2,35.1,29.91,East,91,7.6,7.6,70,0.00,,---,0.04,VWS V14.01,2013-04-21 10:42:00,
2013-04-21 03:47:00,44.2,34.0,29.91,East,91,7.6,7.6,67,0.00,,---,0.04,VWS V14.01,2013-04-21 10:47:00,
2013-04-21 03:53:00,44.2,32.1,29.91,East,91,7.6,7.6,62,0.00,,---,0.04,VWS V14.01,2013-04-21 10:53:00,
2013-04-21 03:59:00,44.2,31.2,29.91,East,91,7.6,7.6,60,0.00,,---,0.04,VWS V14.01,2013-04-21 10:59:00,
2013-04-21 04:04:00,44.2,30.4,29.91,East,91,7.6,7.6,58,0.00,,---,0.04,VWS V14.01,2013-04-21 11:04:00,
2013-04-21 04:10:00,44.2,29.5,29.91,East,91,7.6,7.6,56,0.00,,---,0.04,VWS V14.01,2013-04-21 11:10:00,
2013-04-21 04:15:00,44.1,29.4,29.91,East,91,7.6,7.6,56,0.00,,---,0.04,VWS V14.01,2013-04-21 11:15:00,
2013-04-21 04:20:00,44.1,28.5,29.91,East,91,7.6,7.6,54,0.00,,---,0.04,VWS V14.01,2013-04-21 11:20:00,
2013-04-21 04:26:00,44.1,28.5,29.91,East,91,7.6,7.6,54,0.00,,---,0.04,VWS V14.01,2013-04-21 11:26:00,
2013-04-21 04:32:00,44.1,28.0,29.91,East,91,7.6,7.6,53,0.00,,---,0.04,VWS V14.01,2013-04-21 11:32:00,
2013-04-21 04:37:00,44.1,28.0,29.91,East,91,7.6,7.6,53,0.00,,---,0.04,VWS V14.01,2013-04-21 11:37:00,
2013-04-21 04:42:00,44.1,28.0,29.91,East,91,7.6,7.6,53,0.00,,---,0.04,VWS V14.01,2013-04-21 11:42:00,
2013-04-21 04:48:00,43.9,28.3,29.91,East,91,7.6,7.6,54,0.00,,---,0.04,VWS V14.01,2013-04-21 11:48:00,
2013-04-21 04:53:00,43.9,28.8,29.91,East,91,7.6,7.6,55,0.00,,---,0.04,VWS V14.01,2013-04-21 11:53:00,
2013-04-21 04:58:00,43.9,29.2,29.91,East,91,7.6,7.6,56,0.00,,---,0.04,VWS V14.01,2013-04-21 11:58:00,
2013-04-21 05:03:00,43.9,29.6,29.91,East,91,7.6,7.6,57,0.00,,---,0.04,VWS V14.01,2013-04-21 12:03:00,
2013-04-21 05:09:00,43.9,29.6,29.91,East,91,7.6,7.6,57,0.00,,---,0.04,VWS V14.01,2013-04-21 12:09:00,
2013-04-21 05:15:00,43.9,29.6,29.91,East,91,7.6,7.6,57,0.00,,---,0.04,VWS V14.01,2013-04-21 12:15:00,
2013-04-21 05:21:00,44.1,29.8,29.91,East,91,7.6,7.6,57,0.00,,---,0.04,VWS V14.01,2013-04-21 12:21:00,
2013-04-21 05:27:00,44.1,29.4,29.91,East,91,7.6,7.6,56,0.00,,---,0.04,VWS V14.01,2013-04-21 12:27:00,
2013-04-21 05:32:00,44.1,29.4,29.91,East,91,7.6,7.6,56,0.00,,---,0.04,VWS V14.01,2013-04-21 12:32:00,
2013-04-21 05:38:00,44.1,29.4,29.91,East,91,7.6,7.6,56,0.00,,---,0.04,VWS V14.01,2013-04-21 12:38:00,
2013-04-21 05:43:00,44.1,29.4,29.91,East,91,7.6,7.6,56,0.00,,---,0.04,VWS V14.01,2013-04-21 12:43:00,
2013-04-21 05:48:00,44.1,29.4,29.91,East,91,7.6,7.6,56,0.00,,---,0.04,VWS V14.01,2013-04-21 12:48:00,
2013-04-21 05:53:00,44.1,29.4,29.91,East,91,7.6,7.6,56,0.00,,---,0.04,VWS V14.01,2013-04-21 12:53:00,
2013-04-21 05:58:00,44.1,28.9,29.91,East,91,7.6,7.6,55,0.00,,---,0.04,VWS V14.01,2013-04-21 12:58:00,
2013-04-21 06:04:00,44.1,28.9,29.91,East,91,7.6,7.6,55,0.00,,---,0.04,VWS V14.01,2013-04-21 13:04:00,
2013-04-21 06:09:00,44.1,28.9,29.91,East,91,7.6,7.6,55,0.00,,---,0.04,VWS V14.01,2013-04-21 13:09:00,
2013-04-21 06:14:00,43.9,28.8,29.91,East,91,7.6,7.6,55,0.00,,---,0.04,VWS V14.01,2013-04-21 13:14:00,
2013-04-21 06:19:00,43.9,28.8,29.91,East,91,7.6,7.6,55,0.00,,---,0.04,VWS V14.01,2013-04-21 13:19:00,
2013-04-21 06:25:00,43.7,29.0,29.91,East,91,7.6,7.6,56,0.00,,---,0.04,VWS V14.01,2013-04-21 13:25:00,
2013-04-21 06:31:00,43.7,29.0,29.91,East,91,7.6,7.6,56,0.00,,---,0.04,VWS V14.01,2013-04-21 13:31:00,
2013-04-21 06:36:00,43.7,29.0,29.91,East,91,7.6,7.6,56,0.00,,---,0.04,VWS V14.01,2013-04-21 13:36:00,
2013-04-21 06:41:00,43.7,29.0,29.91,East,91,7.6,7.6,56,0.00,,---,0.04,VWS V14.01,2013-04-21 13:41:00,
2013-04-21 06:47:00,43.7,29.0,29.91,East,91,7.6,7.6,56,0.00,,---,0.04,VWS V14.01,2013-04-21 13:47:00,
2013-04-21 06:52:00,43.7,29.5,29.91,East,91,7.6,7.6,57,0.00,,---,0.04,VWS V14.01,2013-04-21 13:52:00,
2013-04-21 06:58:00,43.7,29.5,29.91,East,91,7.6,7.6,57,0.00,,---,0.04,VWS V14.01,2013-04-21 13:58:00,
2013-04-21 07:04:00,43.5,29.7,29.91,East,91,7.6,7.6,58,0.00,,---,0.04,VWS V14.01,2013-04-21 14:04:00,
2013-04-21 07:09:00,43.7,29.9,29.91,East,91,7.6,7.6,58,0.00,,---,0.04,VWS V14.01,2013-04-21 14:09:00,
2013-04-21 07:14:00,43.5,29.7,29.91,East,91,7.6,7.6,58,0.00,,---,0.04,VWS V14.01,2013-04-21 14:14:00,
2013-04-21 07:20:00,43.7,29.9,29.91,East,91,7.6,7.6,58,0.00,,---,0.04,VWS V14.01,2013-04-21 14:20:00,
2013-04-21 07:25:00,43.7,29.0,29.91,East,91,7.6,7.6,56,0.00,,---,0.04,VWS V14.01,2013-04-21 14:25:00,
2013-04-21 07:30:00,43.7,28.6,29.88,East,91,7.6,7.6,55,0.00,,---,0.04,VWS V14.01,2013-04-21 14:30:00,
2013-04-21 07:35:00,43.7,28.6,29.88,East,91,7.6,7.6,55,0.00,,---,0.04,VWS V14.01,2013-04-21 14:35:00,
2013-04-21 07:41:00,43.7,28.2,29.88,East,91,7.6,7.6,54,0.00,,---,0.04,VWS V14.01,2013-04-21 14:41:00,
2013-04-21 07:47:00,43.7,28.2,29.91,East,91,7.6,7.6,54,0.00,,---,0.04,VWS V14.01,2013-04-21 14:47:00,
2013-04-21 07:52:00,43.7,28.2,29.91,East,91,7.6,7.6,54,0.00,,---,0.04,VWS V14.01,2013-04-21 14:52:00,
2013-04-21 07:58:00,43.9,27.4,29.91,East,91,7.6,7.6,52,0.00,,---,0.04,VWS V14.01,2013-04-21 14:58:00,
2013-04-21 08:03:00,43.9,27.4,29.91,East,91,7.6,7.6,52,0.00,,---,0.04,VWS V14.01,2013-04-21 15:03:00,
2013-04-21 08:08:00,44.1,28.0,29.91,East,91,7.6,7.6,53,0.00,,---,0.04,VWS V14.01,2013-04-21 15:08:00,
2013-04-21 08:14:00,44.2,28.2,29.91,East,91,7.6,7.6,53,0.00,,---,0.04,VWS V14.01,2013-04-21 15:14:00,
2013-04-21 08:20:00,44.2,27.7,29.91,East,91,7.6,7.6,52,0.00,,---,0.04,VWS V14.01,2013-04-21 15:20:00,
2013-04-21 08:25:00,44.2,27.7,29.91,East,91,7.6,7.6,52,0.00,,---,0.04,VWS V14.01,2013-04-21 15:25:00,
2013-04-21 08:31:00,44.2,27.7,29.91,East,91,7.6,7.6,52,0.00,,---,0.04,VWS V14.01,2013-04-21 15:31:00,
2013-04-21 08:36:00,44.4,27.4,29.91,East,91,7.6,7.6,51,0.00,,---,0.04,VWS V14.01,2013-04-21 15:36:00,
2013-04-21 08:41:00,44.4,27.4,29.91,East,91,7.6,7.6,51,0.00,,---,0.04,VWS V14.01,2013-04-21 15:41:00,
2013-04-21 08:47:00,44.6,27.6,29.91,East,91,7.6,7.6,51,0.04,,---,0.08,VWS V14.01,2013-04-21 15:47:00,
2013-04-21 08:53:00,44.6,27.6,29.91,East,91,7.6,7.6,51,0.04,,---,0.08,VWS V14.01,2013-04-21 15:53:00,
2013-04-21 08:58:00,44.8,27.8,29.91,East,91,7.6,7.6,51,0.04,,---,0.08,VWS V14.01,2013-04-21 15:58:00,
2013-04-21 09:03:00,44.8,27.8,29.91,East,91,7.6,7.6,51,0.04,,---,0.08,VWS V14.01,2013-04-21 16:03:00,
2013-04-21 09:08:00,44.8,27.3,29.91,East,91,7.6,7.6,50,0.04,,---,0.08,VWS V14.01,2013-04-21 16:08:00,
2013-04-21 09:14:00,44.8,26.8,29.91,East,91,7.6,7.6,49,0.04,,---,0.08,VWS V14.01,2013-04-21 16:14:00,
2013-04-21 09:19:00,44.8,26.8,29.91,East,91,7.6,7.6,49,0.04,,---,0.08,VWS V14.01,2013-04-21 16:19:00,
2013-04-21 09:24:00,44.8,26.3,29.91,East,91,7.6,7.6,48,0.04,,---,0.08,VWS V14.01,2013-04-21 16:24:00,
2013-04-21 09:30:00,45.1,27.1,29.91,East,91,7.6,7.6,49,0.04,,---,0.08,VWS V14.01,2013-04-21 16:30:00,
2013-04-21 09:36:00,45.3,27.3,29.91,East,91,7.6,7.6,49,0.04,,---,0.08,VWS V14.01,2013-04-21 16:36:00,
2013-04-21 09:41:00,45.9,26.8,29.91,East,91,7.6,7.6,47,0.04,,---,0.08,VWS V14.01,2013-04-21 16:41:00,
2013-04-21 09:46:00,46.0,27.0,29.88,East,91,7.6,7.6,47,0.00,,---,0.08,VWS V14.01,2013-04-21 16:46:00,
2013-04-21 09:51:00,46.0,27.0,29.88,East,91,7.6,7.6,47,0.00,,---,0.08,VWS V14.01,2013-04-21 16:51:00,
2013-04-21 09:57:00,46.0,26.4,29.88,East,91,7.6,7.6,46,0.00,,---,0.08,VWS V14.01,2013-04-21 16:57:00,
2013-04-21 10:02:00,46.0,26.4,29.88,East,91,7.6,7.6,46,0.00,,---,0.08,VWS V14.01,2013-04-21 17:02:00,
2013-04-21 10:07:00,46.0,27.0,29.88,East,91,7.6,7.6,47,0.00,,---,0.08,VWS V14.01,2013-04-21 17:07:00,
2013-04-21 10:13:00,46.4,27.8,29.88,East,91,7.6,7.6,48,0.00,,---,0.08,VWS V14.01,2013-04-21 17:13:00,
2013-04-21 10:19:00,46.4,26.2,29.91,East,91,7.6,7.6,45,0.00,,---,0.08,VWS V14.01,2013-04-21 17:19:00,
2013-04-21 10:25:00,46.4,26.8,29.91,East,91,7.6,7.6,46,0.00,,---,0.08,VWS V14.01,2013-04-21 17:25:00,
2013-04-21 10:31:00,46.2,27.1,29.91,East,91,7.6,7.6,47,0.00,,---,0.08,VWS V14.01,2013-04-21 17:31:00,
2013-04-21 10:36:00,46.2,27.6,29.91,East,91,7.6,7.6,48,0.00,,---,0.08,VWS V14.01,2013-04-21 17:36:00,
2013-04-21 10:42:00,46.2,27.6,29.91,East,91,7.6,7.6,48,0.00,,---,0.08,VWS V14.01,2013-04-21 17:42:00,
2013-04-21 10:47:00,46.2,27.6,29.91,East,91,7.6,7.6,48,0.00,,---,0.08,VWS V14.01,2013-04-21 17:47:00,
2013-04-21 10:53:00,46.0,28.0,29.91,East,91,7.6,7.6,49,0.00,,---,0.08,VWS V14.01,2013-04-21 17:53:00,
2013-04-21 10:59:00,45.9,28.3,29.91,East,91,7.6,7.6,50,0.00,,---,0.08,VWS V14.01,2013-04-21 17:59:00,
2013-04-21 11:04:00,45.9,28.3,29.91,East,91,7.6,7.6,50,0.00,,---,0.08,VWS V14.01,2013-04-21 18:04:00,
2013-04-21 11:10:00,45.9,29.2,29.91,East,91,7.6,7.6,52,0.00,,---,0.08,VWS V14.01,2013-04-21 18:10:00,
2013-04-21 11:15:00,45.9,29.2,29.91,East,91,7.6,7.6,52,0.00,,---,0.08,VWS V14.01,2013-04-21 18:15:00,
2013-04-21 11:21:00,45.3,27.3,29.91,East,91,7.6,7.6,49,0.00,,---,0.08,VWS V14.01,2013-04-21 18:21:00,
2013-04-21 11:26:00,45.3,27.3,29.91,East,91,7.6,7.6,49,0.00,,---,0.08,VWS V14.01,2013-04-21 18:26:00,
2013-04-21 11:32:00,45.9,28.8,29.91,East,91,7.6,7.6,51,0.00,,---,0.08,VWS V14.01,2013-04-21 18:32:00,
2013-04-21 11:37:00,46.0,28.9,29.91,East,91,7.6,7.6,51,0.00,,---,0.08,VWS V14.01,2013-04-21 18:37:00,
2013-04-21 11:42:00,46.4,29.3,29.91,East,91,7.6,7.6,51,0.00,,---,0.08,VWS V14.01,2013-04-21 18:42:00,
2013-04-21 11:47:00,46.4,28.8,29.91,East,91,7.6,7.6,50,0.00,,---,0.08,VWS V14.01,2013-04-21 18:47:00,
2013-04-21 11:52:00,46.0,28.5,29.91,East,91,7.6,7.6,50,0.00,,---,0.08,VWS V14.01,2013-04-21 18:52:00,
2013-04-21 11:58:00,46.2,28.6,29.91,East,91,7.6,7.6,50,0.00,,---,0.08,VWS V14.01,2013-04-21 18:58:00,
2013-04-21 12:03:00,46.4,28.3,29.91,East,91,7.6,7.6,49,0.00,,---,0.08,VWS V14.01,2013-04-21 19:03:00,
2013-04-21 12:09:00,46.4,27.3,29.91,East,91,7.6,7.6,47,0.00,,---,0.08,VWS V14.01,2013-04-21 19:09:00,
2013-04-21 12:15:00,46.8,27.1,29.91,East,91,7.6,7.6,46,0.00,,---,0.08,VWS V14.01,2013-04-21 19:15:00,
2013-04-21 12:21:00,47.1,26.9,29.91,East,91,7.6,7.6,45,0.00,,---,0.08,VWS V14.01,2013-04-21 19:21:00,
2013-04-21 12:27:00,47.3,24.8,29.91,East,91,7.6,7.6,41,0.00,,---,0.08,VWS V14.01,2013-04-21 19:27:00,
2013-04-21 12:32:00,47.3,24.8,29.91,East,91,7.6,7.6,41,0.00,,---,0.08,VWS V14.01,2013-04-21 19:32:00,
2013-04-21 12:38:00,47.5,25.5,29.91,East,91,7.6,7.6,42,0.00,,---,0.08,VWS V14.01,2013-04-21 19:38:00,
2013-04-21 12:44:00,47.5,25.5,29.91,East,91,7.6,7.6,42,0.00,,---,0.08,VWS V14.01,2013-04-21 19:44:00,
2013-04-21 12:50:00,47.7,26.8,29.91,East,91,7.6,7.6,44,0.00,,---,0.08,VWS V14.01,2013-04-21 19:50:00,
2013-04-21 12:56:00,47.5,26.1,29.91,East,91,7.6,7.6,43,0.00,,---,0.08,VWS V14.01,2013-04-21 19:56:00,
2013-04-21 13:02:00,47.8,26.4,29.91,East,91,7.6,7.6,43,0.00,,---,0.08,VWS V14.01,2013-04-21 20:02:00,
2013-04-21 13:07:00,48.4,26.4,29.91,East,91,7.6,7.6,42,0.00,,---,0.08,VWS V14.01,2013-04-21 20:07:00,
2013-04-21 13:12:00,48.4,25.8,29.91,East,91,7.6,7.6,41,0.00,,---,0.08,VWS V14.01,2013-04-21 20:12:00,
2013-04-21 13:17:00,48.4,25.8,29.91,East,91,7.6,7.6,41,0.00,,---,0.08,VWS V14.01,2013-04-21 20:17:00,
2013-04-21 13:22:00,48.2,26.2,29.91,East,91,7.6,7.6,42,0.00,,---,0.08,VWS V14.01,2013-04-21 20:22:00,
2013-04-21 13:28:00,48.2,26.8,29.91,East,91,7.6,7.6,43,0.00,,---,0.08,VWS V14.01,2013-04-21 20:28:00,
2013-04-21 13:34:00,48.7,26.1,29.91,East,91,7.6,7.6,41,0.00,,---,0.08,VWS V14.01,2013-04-21 20:34:00,
2013-04-21 13:39:00,48.9,26.3,29.91,East,91,7.6,7.6,41,0.00,,---,0.08,VWS V14.01,2013-04-21 20:39:00,
2013-04-21 13:44:00,48.9,27.4,29.91,East,91,7.6,7.6,43,0.00,,---,0.08,VWS V14.01,2013-04-21 20:44:00,
2013-04-21 13:50:00,49.3,27.2,29.91,East,91,7.6,7.6,42,0.00,,---,0.08,VWS V14.01,2013-04-21 20:50:00,
2013-04-21 13:55:00,50.2,28.0,29.91,East,91,7.6,7.6,42,0.00,,---,0.08,VWS V14.01,2013-04-21 20:55:00,
2013-04-21 14:01:00,50.5,26.5,29.91,East,91,7.6,7.6,39,0.00,,---,0.08,VWS V14.01,2013-04-21 21:01:00,
2013-04-21 14:07:00,51.1,25.7,29.91,East,91,7.6,7.6,37,0.00,,---,0.08,VWS V14.01,2013-04-21 21:07:00,
2013-04-21 14:12:00,51.3,25.2,29.91,East,91,7.6,7.6,36,0.00,,---,0.08,VWS V14.01,2013-04-21 21:12:00,
2013-04-21 14:18:00,50.5,25.2,29.91,East,91,7.6,7.6,37,0.00,,---,0.08,VWS V14.01,2013-04-21 21:18:00,
2013-04-21 14:23:00,49.8,25.2,29.91,East,91,7.6,7.6,38,0.00,,---,0.08,VWS V14.01,2013-04-21 21:23:00,
2013-04-21 14:28:00,49.1,24.0,29.91,East,91,7.6,7.6,37,0.00,,---,0.08,VWS V14.01,2013-04-21 21:28:00,
2013-04-21 14:33:00,49.3,24.8,29.91,East,91,7.6,7.6,38,0.00,,---,0.08,VWS V14.01,2013-04-21 21:33:00,
2013-04-21 14:39:00,50.0,24.1,29.91,East,91,7.6,7.6,36,0.00,,---,0.08,VWS V14.01,2013-04-21 21:39:00,
2013-04-21 14:44:00,51.1,25.7,29.91,East,91,7.6,7.6,37,0.00,,---,0.08,VWS V14.01,2013-04-21 21:44:00,
2013-04-21 14:50:00,51.6,24.2,29.91,East,91,7.6,7.6,34,0.00,,---,0.08,VWS V14.01,2013-04-21 21:50:00,
2013-04-21 14:55:00,52.2,24.0,29.91,East,91,7.6,7.6,33,0.00,,---,0.08,VWS V14.01,2013-04-21 21:55:00,
2013-04-21 15:00:00,53.4,23.6,29.91,East,91,7.6,7.6,31,0.00,,---,0.08,VWS V14.01,2013-04-21 22:00:00,
2013-04-21 15:06:00,53.2,22.6,29.91,East,91,7.6,7.6,30,0.00,,---,0.08,VWS V14.01,2013-04-21 22:06:00,
2013-04-21 15:11:00,53.4,23.6,29.91,East,91,7.6,7.6,31,0.00,,---,0.08,VWS V14.01,2013-04-21 22:11:00,
2013-04-21 15:17:00,52.5,23.5,29.91,East,91,7.6,7.6,32,0.00,,---,0.08,VWS V14.01,2013-04-21 22:17:00,
2013-04-21 15:22:00,51.6,24.9,29.91,East,91,7.6,7.6,35,0.00,,---,0.08,VWS V14.01,2013-04-21 22:22:00,
2013-04-21 15:28:00,53.2,24.2,29.91,East,91,7.6,7.6,32,0.00,,---,0.08,VWS V14.01,2013-04-21 22:28:00,
2013-04-21 15:34:00,53.8,23.1,29.91,East,91,7.6,7.6,30,0.00,,---,0.08,VWS V14.01,2013-04-21 22:34:00,
2013-04-21 15:39:00,54.1,23.4,29.91,East,91,7.6,7.6,30,0.00,,---,0.08,VWS V14.01,2013-04-21 22:39:00,
2013-04-21 15:44:00,54.1,22.6,29.91,East,91,7.6,7.6,29,0.00,,---,0.08,VWS V14.01,2013-04-21 22:44:00,
2013-04-21 15:50:00,54.3,21.9,29.91,East,91,7.6,7.6,28,0.00,,---,0.08,VWS V14.01,2013-04-21 22:50:00,
2013-04-21 15:56:00,53.2,21.8,29.91,East,91,7.6,7.6,29,0.00,,---,0.08,VWS V14.01,2013-04-21 22:56:00,
2013-04-21 16:01:00,52.0,21.5,29.91,East,91,7.6,7.6,30,0.00,,---,0.08,VWS V14.01,2013-04-21 23:01:00,
2013-04-21 16:07:00,52.0,21.5,29.91,East,91,7.6,7.6,30,0.00,,---,0.08,VWS V14.01,2013-04-21 23:07:00,
2013-04-21 16:13:00,52.2,21.7,29.91,East,91,7.6,7.6,30,0.00,,---,0.08,VWS V14.01,2013-04-21 23:13:00,
2013-04-21 16:19:00,51.6,21.2,29.91,East,91,7.6,7.6,30,0.00,,---,0.08,VWS V14.01,2013-04-21 23:19:00,
2013-04-21 16:25:00,51.3,20.9,29.91,East,91,7.6,7.6,30,0.00,,---,0.08,VWS V14.01,2013-04-21 23:25:00,
2013-04-21 16:30:00,52.0,20.7,29.91,East,91,7.6,7.6,29,0.00,,---,0.08,VWS V14.01,2013-04-21 23:30:00,
2013-04-21 16:36:00,52.9,20.7,29.91,East,91,7.6,7.6,28,0.00,,---,0.08,VWS V14.01,2013-04-21 23:36:00,
2013-04-21 16:41:00,52.9,20.7,29.91,East,91,7.6,7.6,28,0.00,,---,0.08,VWS V14.01,2013-04-21 23:41:00,
2013-04-21 16:46:00,52.2,20.1,29.91,East,91,7.6,7.6,28,0.00,,---,0.08,VWS V14.01,2013-04-21 23:46:00,
2013-04-21 16:51:00,52.0,19.9,29.91,East,91,7.6,7.6,28,0.00,,---,0.08,VWS V14.01,2013-04-21 23:51:00,
2013-04-21 16:57:00,52.2,20.1,29.91,East,91,7.6,7.6,28,0.00,,---,0.08,VWS V14.01,2013-04-21 23:57:00,
2013-04-21 17:03:00,53.4,21.1,29.91,East,91,7.6,7.6,28,0.00,,---,0.08,VWS V14.01,2013-04-22 00:03:00,
2013-04-21 17:09:00,52.9,19.8,29.91,East,91,7.6,7.6,27,0.00,,---,0.08,VWS V14.01,2013-04-22 00:09:00,
2013-04-21 17:14:00,52.5,19.5,29.91,East,91,7.6,7.6,27,0.00,,---,0.08,VWS V14.01,2013-04-22 00:14:00,
2013-04-21 17:19:00,52.3,19.4,29.91,East,91,7.6,7.6,27,0.00,,---,0.08,VWS V14.01,2013-04-22 00:19:00,
2013-04-21 17:24:00,52.0,19.9,29.91,East,91,7.6,7.6,28,0.00,,---,0.08,VWS V14.01,2013-04-22 00:24:00,
2013-04-21 17:29:00,52.0,19.9,29.91,East,91,7.6,7.6,28,0.00,,---,0.08,VWS V14.01,2013-04-22 00:29:00,
2013-04-21 17:34:00,52.3,19.4,29.91,East,91,7.6,7.6,27,0.00,,---,0.08,VWS V14.01,2013-04-22 00:34:00,
2013-04-21 17:39:00,52.7,19.7,29.91,East,91,7.6,7.6,27,0.00,,---,0.08,VWS V14.01,2013-04-22 00:39:00,
2013-04-21 17:45:00,52.7,19.7,29.91,East,91,7.6,7.6,27,0.00,,---,0.08,VWS V14.01,2013-04-22 00:45:00,
2013-04-21 17:50:00,52.0,19.1,29.91,East,91,7.6,7.6,27,0.00,,---,0.08,VWS V14.01,2013-04-22 00:50:00,
2013-04-21 17:56:00,51.4,18.6,29.91,East,91,7.6,7.6,27,0.00,,---,0.08,VWS V14.01,2013-04-22 00:56:00,
2013-04-21 18:02:00,51.3,18.4,29.91,East,91,7.6,7.6,27,0.00,,---,0.08,VWS V14.01,2013-04-22 01:02:00,
2013-04-21 18:07:00,51.6,18.8,29.91,East,91,7.6,7.6,27,0.00,,---,0.08,VWS V14.01,2013-04-22 01:07:00,
2013-04-21 18:13:00,52.0,19.1,29.91,East,91,7.6,7.6,27,0.00,,---,0.08,VWS V14.01,2013-04-22 01:13:00,
2013-04-21 18:19:00,52.3,19.4,29.91,East,91,7.6,7.6,27,0.00,,---,0.08,VWS V14.01,2013-04-22 01:19:00,
2013-04-21 18:25:00,52.3,19.4,29.91,East,91,7.6,7.6,27,0.00,,---,0.08,VWS V14.01,2013-04-22 01:25:00,
2013-04-21 18:30:00,52.2,19.2,29.91,East,91,7.6,7.6,27,0.00,,---,0.08,VWS V14.01,2013-04-22 01:30:00,
2013-04-21 18:35:00,51.8,20.6,29.91,East,91,7.6,7.6,29,0.00,,---,0.08,VWS V14.01,2013-04-22 01:35:00,
2013-04-21 18:40:00,51.6,21.2,29.91,East,91,7.6,7.6,30,0.00,,---,0.08,VWS V14.01,2013-04-22 01:40:00,
2013-04-21 18:46:00,51.6,22.0,29.91,East,91,7.6,7.6,31,0.00,,---,0.08,VWS V14.01,2013-04-22 01:46:00,
2013-04-21 18:51:00,51.6,22.0,29.91,East,91,7.6,7.6,31,0.00,,---,0.08,VWS V14.01,2013-04-22 01:51:00,
2013-04-21 18:57:00,51.4,21.8,29.91,East,91,7.6,7.6,31,0.00,,---,0.08,VWS V14.01,2013-04-22 01:57:00,
2013-04-21 19:03:00,51.3,21.7,29.94,East,91,7.6,7.6,31,0.00,,---,0.08,VWS V14.01,2013-04-22 02:03:00,
2013-04-21 19:08:00,51.1,20.8,29.94,East,91,7.6,7.6,30,0.00,,---,0.08,VWS V14.01,2013-04-22 02:08:00,
2013-04-21 19:13:00,50.9,20.6,29.94,East,91,7.6,7.6,30,0.00,,---,0.08,VWS V14.01,2013-04-22 02:13:00,
2013-04-21 19:19:00,50.5,19.5,29.94,East,91,7.6,7.6,29,0.00,,---,0.08,VWS V14.01,2013-04-22 02:19:00,
2013-04-21 19:25:00,50.2,19.2,29.94,East,91,7.6,7.6,29,0.00,,---,0.08,VWS V14.01,2013-04-22 02:25:00,
2013-04-21 19:30:00,49.6,19.5,29.94,East,91,7.6,7.6,30,0.00,,---,0.08,VWS V14.01,2013-04-22 02:30:00,
2013-04-21 19:35:00,49.3,19.2,29.94,East,91,7.6,7.6,30,0.00,,---,0.08,VWS V14.01,2013-04-22 02:35:00,
2013-04-21 19:41:00,48.9,18.9,29.94,East,91,7.6,7.6,30,0.00,,---,0.08,VWS V14.01,2013-04-22 02:41:00,
2013-04-21 19:46:00,48.6,19.3,29.94,East,91,7.6,7.6,31,0.00,,---,0.08,VWS V14.01,2013-04-22 02:46:00,
2013-04-21 19:51:00,48.2,19.0,29.94,East,91,7.6,7.6,31,0.00,,---,0.08,VWS V14.01,2013-04-22 02:51:00,
2013-04-21 19:56:00,48.0,19.6,29.94,East,91,7.6,7.6,32,0.00,,---,0.08,VWS V14.01,2013-04-22 02:56:00,
2013-04-21 20:02:00,47.5,19.8,29.94,East,91,7.6,7.6,33,0.00,,---,0.08,VWS V14.01,2013-04-22 03:02:00,
2013-04-21 20:08:00,47.3,20.4,29.94,East,91,7.6,7.6,34,0.00,,---,0.08,VWS V14.01,2013-04-22 03:08:00,
2013-04-21 20:14:00,46.9,20.7,29.97,East,91,7.6,7.6,35,0.00,,---,0.08,VWS V14.01,2013-04-22 03:14:00,
2013-04-21 20:20:00,46.8,21.2,29.97,East,91,7.6,7.6,36,0.00,,---,0.08,VWS V14.01,2013-04-22 03:20:00,
2013-04-21 20:25:00,46.4,21.6,29.97,East,91,7.6,7.6,37,0.00,,---,0.08,VWS V14.01,2013-04-22 03:25:00,
2013-04-21 20:31:00,46.2,21.4,29.97,East,91,7.6,7.6,37,0.00,,---,0.08,VWS V14.01,2013-04-22 03:31:00,
2013-04-21 20:36:00,46.0,21.9,29.97,East,91,7.6,7.6,38,0.00,,---,0.08,VWS V14.01,2013-04-22 03:36:00,
2013-04-21 20:41:00,45.9,21.7,29.97,East,91,7.6,7.6,38,0.00,,---,0.08,VWS V14.01,2013-04-22 03:41:00,
2013-04-21 20:46:00,45.5,21.4,29.97,East,91,7.6,7.6,38,0.00,,---,0.08,VWS V14.01,2013-04-22 03:46:00,
2013-04-21 20:51:00,45.3,21.2,29.97,East,91,7.6,7.6,38,0.00,,---,0.08,VWS V14.01,2013-04-22 03:51:00,
2013-04-21 20:57:00,45.1,21.7,29.97,East,91,7.6,7.6,39,0.00,,---,0.08,VWS V14.01,2013-04-22 03:57:00,
2013-04-21 21:01:00,45.1,21.7,29.97,East,91,7.6,7.6,39,0.00,,---,0.08,VWS V14.01,2013-04-22 04:01:00,
2013-04-21 21:02:00,45.1,21.7,29.97,East,91,7.6,7.6,39,0.00,,---,0.08,VWS V14.01,2013-04-22 04:02:00,
2013-04-21 21:03:00,45.1,21.7,29.97,East,91,7.6,7.6,39,0.00,,---,0.08,VWS V14.01,2013-04-22 04:03:00,
2013-04-21 21:04:00,45.1,22.3,29.97,East,91,7.6,7.6,40,0.00,,---,0.08,VWS V14.01,2013-04-22 04:04:00,
2013-04-21 21:09:00,45.1,22.3,29.97,East,91,7.6,7.6,40,0.00,,---,0.08,VWS V14.01,2013-04-22 04:09:00,
2013-04-21 21:15:00,45.0,22.1,30.00,East,91,7.6,7.6,40,0.00,,---,0.08,VWS V14.01,2013-04-22 04:15:00,
2013-04-21 21:21:00,45.0,22.1,30.00,East,91,7.6,7.6,40,0.00,,---,0.08,VWS V14.01,2013-04-22 04:21:00,
2013-04-21 21:26:00,44.8,22.0,30.00,East,91,7.6,7.6,40,0.00,,---,0.08,VWS V14.01,2013-04-22 04:26:00,
2013-04-21 21:31:00,44.8,22.0,30.00,East,91,7.6,7.6,40,0.00,,---,0.08,VWS V14.01,2013-04-22 04:31:00,
2013-04-21 21:36:00,44.8,21.4,30.00,East,91,7.6,7.6,39,0.00,,---,0.08,VWS V14.01,2013-04-22 04:36:00,
2013-04-21 21:42:00,44.6,21.2,30.00,East,91,7.6,7.6,39,0.00,,---,0.08,VWS V14.01,2013-04-22 04:42:00,
2013-04-21 21:48:00,44.6,21.2,30.00,East,91,7.6,7.6,39,0.00,,---,0.08,VWS V14.01,2013-04-22 04:48:00,
2013-04-21 21:54:00,44.2,20.9,30.00,East,91,7.6,7.6,39,0.00,,---,0.08,VWS V14.01,2013-04-22 04:54:00,
2013-04-21 21:59:00,44.1,21.3,30.00,East,91,7.6,7.6,40,0.00,,---,0.08,VWS V14.01,2013-04-22 04:59:00,
2013-04-21 22:05:00,43.7,21.0,30.00,East,91,7.6,7.6,40,0.00,,---,0.08,VWS V14.01,2013-04-22 05:05:00,
2013-04-21 22:10:00,43.5,20.8,30.00,East,91,7.6,7.6,40,0.00,,---,0.08,VWS V14.01,2013-04-22 05:10:00,
2013-04-21 22:16:00,43.5,20.8,30.00,East,91,7.6,7.6,40,0.00,,---,0.08,VWS V14.01,2013-04-22 05:16:00,
2013-04-21 22:21:00,43.5,20.8,30.00,East,91,7.6,7.6,40,0.00,,---,0.08,VWS V14.01,2013-04-22 05:21:00,
2013-04-21 22:27:00,43.2,20.5,30.00,East,91,7.6,7.6,40,0.00,,---,0.08,VWS V14.01,2013-04-22 05:27:00,
2013-04-21 22:33:00,42.8,20.8,30.00,East,91,7.6,7.6,41,0.00,,---,0.08,VWS V14.01,2013-04-22 05:33:00,
2013-04-21 22:38:00,42.6,20.6,30.00,East,91,7.6,7.6,41,0.00,,---,0.08,VWS V14.01,2013-04-22 05:38:00,
2013-04-21 22:43:00,42.6,21.1,30.00,East,91,7.6,7.6,42,0.00,,---,0.08,VWS V14.01,2013-04-22 05:43:00,
2013-04-21 22:49:00,42.8,21.3,30.03,East,91,7.6,7.6,42,0.00,,---,0.08,VWS V14.01,2013-04-22 05:49:00,
2013-04-21 22:54:00,42.8,21.3,30.03,East,91,7.6,7.6,42,0.00,,---,0.08,VWS V14.01,2013-04-22 05:54:00,
2013-04-21 22:59:00,43.0,21.5,30.03,East,91,7.6,7.6,42,0.00,,---,0.08,VWS V14.01,2013-04-22 05:59:00,
2013-04-21 23:04:00,43.2,21.1,30.03,East,91,7.6,7.6,41,0.00,,---,0.08,VWS V14.01,2013-04-22 06:04:00,
2013-04-21 23:10:00,43.2,21.1,30.03,East,91,7.6,7.6,41,0.00,,---,0.08,VWS V14.01,2013-04-22 06:10:00,
2013-04-21 23:15:00,43.0,20.9,30.03,East,91,7.6,7.6,41,0.00,,---,0.08,VWS V14.01,2013-04-22 06:15:00,
2013-04-21 23:20:00,42.6,20.6,30.03,East,91,7.6,7.6,41,0.00,,---,0.08,VWS V14.01,2013-04-22 06:20:00,
2013-04-21 23:25:00,42.4,21.0,30.03,East,91,7.6,7.6,42,0.00,,---,0.08,VWS V14.01,2013-04-22 06:25:00,
2013-04-21 23:30:00,42.3,20.8,30.03,East,91,7.6,7.6,42,0.00,,---,0.08,VWS V14.01,2013-04-22 06:30:00,
2013-04-21 23:36:00,42.1,21.2,30.03,East,91,7.6,7.6,43,0.00,,---,0.08,VWS V14.01,2013-04-22 06:36:00,
2013-04-21 23:42:00,42.1,21.2,30.03,East,91,7.6,7.6,43,0.00,,---,0.08,VWS V14.01,2013-04-22 06:42:00,
2013-04-21 23:47:00,41.9,21.0,30.03,East,91,7.6,7.6,43,0.00,,---,0.08,VWS V14.01,2013-04-22 06:47:00,
2013-04-21 23:53:00,41.7,20.9,30.03,East,91,7.6,7.6,43,0.00,,---,0.08,VWS V14.01,2013-04-22 06:53:00,
2013-04-21 23:58:00,41.9,21.6,30.03,East,91,7.6,7.6,44,0.00,,---,0.08,VWS V14.01,2013-04-22 06:58:00,